Time,TemperatureF,DewpointF,PressureIn,WindDirection,WindDirectionDegrees,WindSpeedMPH,WindSpeedGustMPH,Humidity,HourlyPrecipIn,Conditions,Clouds,dailyrainin,SoftwareType,DateUTC
2013-07-12 00:02:00,67.0,58.0,-100.00,ESE,120,4.0,7.0,72,0.00,,,-99.99,,2013-07-12 05:02:00,
2013-07-12 00:11:00,66.0,58.0,-100.00,ESE,115,3.0,6.0,74,0.00,,,-99.99,,2013-07-12 05:11:00,
2013-07-12 00:22:00,66.0,58.0,-100.00,ESE,115,3.0,6.0,74,0.00,,,-99.99,,2013-07-12 05:22:00,
2013-07-12 00:32:00,66.0,58.0,-100.00,ESE,115,3.0,6.0,74,0.00,,,-99.99,,2013-07-12 05:32:00,
2013-07-12 00:43:00,65.0,57.0,-100.00,SE,135,4.0,6.0,76,0.00,,,-99.99,,2013-07-12 05:43:00,
2013-07-12 00:53:00,65.0,57.0,-100.00,SE,135,4.0,6.0,76,0.00,,,-99.99,,2013-07-12 05:53:00,
2013-07-12 01:01:00,65.0,58.0,-100.00,East,100,3.0,7.0,77,0.00,,,-99.99,,2013-07-12 06:01:00,
2013-07-12 01:11:00,65.0,58.0,-100.00,SE,130,3.0,7.0,77,0.00,,,-99.99,,2013-07-12 06:11:00,
2013-07-12 01:33:00,65.0,58.0,-100.00,SE,130,3.0,7.0,77,0.00,,,-99.99,,2013-07-12 06:33:00,
2013-07-12 01:42:00,64.0,57.0,-100.00,SE,135,4.0,7.0,78,0.00,,,-99.99,,2013-07-12 06:42:00,
2013-07-12 01:52:00,64.0,57.0,-100.00,SE,130,4.0,7.0,78,0.00,,,-99.99,,2013-07-12 06:52:00,
2013-07-12 02:02:00,64.0,57.0,-100.00,SE,130,4.0,7.0,78,0.00,,,-99.99,,2013-07-12 07:02:00,
2013-07-12 02:12:00,64.0,58.0,-100.00,SE,135,4.0,6.0,80,0.00,,,-99.99,,2013-07-12 07:12:00,
2013-07-12 02:22:00,63.0,57.0,-100.00,SE,140,4.0,7.0,80,0.00,,,-99.99,,2013-07-12 07:22:00,
2013-07-12 02:32:00,63.0,57.0,-100.00,SE,140,4.0,7.0,80,0.00,,,-99.99,,2013-07-12 07:32:00,
2013-07-12 02:43:00,64.0,58.0,-100.00,SE,140,5.0,8.0,80,0.00,,,-99.99,,2013-07-12 07:43:00,
2013-07-12 02:52:00,64.0,58.0,-100.00,SE,140,5.0,8.0,80,0.00,,,-99.99,,2013-07-12 07:52:00,
2013-07-12 03:11:00,63.0,58.0,-100.00,SE,135,4.0,6.0,81,0.00,,,-99.99,,2013-07-12 08:11:00,
2013-07-12 03:21:00,63.0,58.0,-100.00,SE,130,3.0,6.0,82,0.00,,,-99.99,,2013-07-12 08:21:00,
2013-07-12 03:32:00,63.0,58.0,-100.00,SE,125,4.0,6.0,82,0.00,,,-99.99,,2013-07-12 08:32:00,
2013-07-12 03:42:00,62.0,57.0,-100.00,SE,140,3.0,7.0,83,0.00,,,-99.99,,2013-07-12 08:42:00,
2013-07-12 03:53:00,62.0,57.0,-100.00,SSE,150,4.0,7.0,84,0.00,,,-99.99,,2013-07-12 08:53:00,
2013-07-12 04:02:00,62.0,57.0,-100.00,SSE,150,4.0,7.0,84,0.00,,,-99.99,,2013-07-12 09:02:00,
2013-07-12 04:12:00,63.0,58.0,-100.00,SE,130,5.0,9.0,84,0.00,,,-99.99,,2013-07-12 09:12:00,
2013-07-12 04:22:00,63.0,58.0,-100.00,SE,130,4.0,9.0,84,0.00,,,-99.99,,2013-07-12 09:22:00,
2013-07-12 04:32:00,63.0,58.0,-100.00,SE,130,4.0,9.0,84,0.00,,,-99.99,,2013-07-12 09:32:00,
2013-07-12 04:43:00,62.0,58.0,-100.00,SE,125,6.0,8.0,84,0.00,,,-99.99,,2013-07-12 09:43:00,
2013-07-12 04:52:00,62.0,58.0,-100.00,SE,125,6.0,8.0,84,0.00,,,-99.99,,2013-07-12 09:52:00,
2013-07-12 05:01:00,62.0,58.0,-100.00,SE,130,6.0,9.0,84,0.00,,,-99.99,,2013-07-12 10:01:00,
2013-07-12 05:11:00,62.0,58.0,-100.00,SE,135,4.0,7.0,85,0.00,,,-99.99,,2013-07-12 10:11:00,
2013-07-12 05:22:00,62.0,57.0,-100.00,SE,135,3.0,7.0,85,0.00,,,-99.99,,2013-07-12 10:22:00,
2013-07-12 05:33:00,62.0,57.0,-100.00,SE,135,3.0,7.0,85,0.00,,,-99.99,,2013-07-12 10:33:00,
2013-07-12 05:42:00,61.0,58.0,-100.00,SE,130,4.0,7.0,86,0.00,,,-99.99,,2013-07-12 10:42:00,
2013-07-12 05:52:00,61.0,58.0,-100.00,SE,130,4.0,7.0,86,0.00,,,-99.99,,2013-07-12 10:52:00,
2013-07-12 06:02:00,61.0,57.0,-100.00,SE,140,4.0,7.0,87,0.00,,,-99.99,,2013-07-12 11:02:00,
2013-07-12 06:12:00,61.0,57.0,-100.00,SE,135,4.0,7.0,88,0.00,,,-99.99,,2013-07-12 11:12:00,
2013-07-12 06:32:00,61.0,58.0,-100.00,SE,140,4.0,9.0,88,0.00,,,-99.99,,2013-07-12 11:32:00,
2013-07-12 06:43:00,62.0,58.0,-100.00,SE,135,4.0,7.0,88,0.00,,,-99.99,,2013-07-12 11:43:00,
2013-07-12 06:52:00,62.0,59.0,-100.00,SE,125,4.0,7.0,88,0.00,,,-99.99,,2013-07-12 11:52:00,
2013-07-12 07:22:00,63.0,59.0,-100.00,SE,140,4.0,8.0,85,0.00,,,-99.99,,2013-07-12 12:22:00,
2013-07-12 07:32:00,65.0,59.0,-100.00,SE,140,6.0,11.0,80,0.00,,,-99.99,,2013-07-12 12:32:00,
2013-07-12 07:43:00,67.0,58.0,-100.00,SE,130,6.0,11.0,74,0.00,,,-99.99,,2013-07-12 12:43:00,
2013-07-12 07:52:00,67.0,58.0,-100.00,SSE,150,6.0,10.0,72,0.00,,,-99.99,,2013-07-12 12:52:00,
2013-07-12 08:12:00,68.0,58.0,-100.00,SSE,160,6.0,9.0,70,0.00,,,-99.99,,2013-07-12 13:12:00,
2013-07-12 08:22:00,69.0,58.0,-100.00,SSE,155,5.0,9.0,68,0.00,,,-99.99,,2013-07-12 13:22:00,
2013-07-12 08:32:00,70.0,58.0,-100.00,SSE,160,6.0,12.0,65,0.00,,,-99.99,,2013-07-12 13:32:00,
2013-07-12 08:43:00,71.0,57.0,-100.00,SSE,165,7.0,12.0,61,0.00,,,-99.99,,2013-07-12 13:43:00,
2013-07-12 08:53:00,72.0,57.0,-100.00,South,175,7.0,14.0,58,0.00,,,-99.99,,2013-07-12 13:53:00,
2013-07-12 09:32:00,74.0,56.0,-100.00,SSE,155,10.0,17.0,52,0.00,,,-99.99,,2013-07-12 14:32:00,
2013-07-12 09:44:00,76.0,56.0,-100.00,SSE,160,6.0,17.0,51,0.00,,,-99.99,,2013-07-12 14:44:00,
2013-07-12 10:33:00,78.0,55.0,-100.00,South,180,7.0,18.0,45,0.00,,,-99.99,,2013-07-12 15:33:00,
2013-07-12 10:43:00,78.0,55.0,-100.00,South,175,8.0,20.0,45,0.00,,,-99.99,,2013-07-12 15:43:00,
2013-07-12 10:53:00,79.0,56.0,-100.00,SE,125,8.0,15.0,44,0.00,,,-99.99,,2013-07-12 15:53:00,
2013-07-12 11:32:00,81.0,57.0,-100.00,SE,140,7.0,16.0,43,0.00,,,-99.99,,2013-07-12 16:32:00,
2013-07-12 11:43:00,81.0,56.0,-100.00,SSE,150,7.0,19.0,41,0.00,,,-99.99,,2013-07-12 16:43:00,
2013-07-12 12:06:00,81.0,56.0,-100.00,SSE,150,9.0,16.0,42,0.00,,,-99.99,,2013-07-12 17:06:00,
2013-07-12 12:24:00,82.0,57.0,-100.00,South,170,8.0,16.0,42,0.00,,,-99.99,,2013-07-12 17:24:00,
2013-07-12 12:37:00,83.0,57.0,-100.00,SSE,160,7.0,14.0,41,0.00,,,-99.99,,2013-07-12 17:37:00,
2013-07-12 12:45:00,83.0,57.0,-100.00,SE,145,7.0,15.0,41,0.00,,,-99.99,,2013-07-12 17:45:00,
2013-07-12 12:53:00,84.0,57.0,-100.00,SSE,160,7.0,18.0,40,0.00,,,-99.99,,2013-07-12 17:53:00,
2013-07-12 13:14:00,84.0,57.0,-100.00,South,175,7.0,16.0,40,0.00,,,-99.99,,2013-07-12 18:14:00,
2013-07-12 13:26:00,85.0,57.0,-100.00,South,170,7.0,15.0,38,0.00,,,-99.99,,2013-07-12 18:26:00,
2013-07-12 13:57:00,86.0,57.0,-100.00,South,175,6.0,13.0,37,0.00,,,-99.99,,2013-07-12 18:57:00,
2013-07-12 14:15:00,85.0,57.0,-100.00,SE,135,9.0,14.0,37,0.00,,,-99.99,,2013-07-12 19:15:00,
2013-07-12 14:33:00,86.0,57.0,-100.00,SE,135,8.0,16.0,36,0.00,,,-99.99,,2013-07-12 19:33:00,
2013-07-12 14:45:00,86.0,57.0,-100.00,SE,130,10.0,15.0,36,0.00,,,-99.99,,2013-07-12 19:45:00,
2013-07-12 14:56:00,87.0,57.0,-100.00,SE,140,7.0,16.0,36,0.00,,,-99.99,,2013-07-12 19:56:00,
2013-07-12 15:13:00,87.0,57.0,-100.00,ESE,120,9.0,20.0,36,0.00,,,-99.99,,2013-07-12 20:13:00,
2013-07-12 15:24:00,87.0,56.0,-100.00,SSE,160,9.0,15.0,35,0.00,,,-99.99,,2013-07-12 20:24:00,
2013-07-12 15:33:00,88.0,57.0,-100.00,SE,140,5.0,17.0,35,0.00,,,-99.99,,2013-07-12 20:33:00,
2013-07-12 15:55:00,88.0,57.0,-100.00,SE,140,8.0,17.0,35,0.00,,,-99.99,,2013-07-12 20:55:00,
2013-07-12 16:03:00,88.0,57.0,-100.00,SE,140,8.0,17.0,35,0.00,,,-99.99,,2013-07-12 21:03:00,
2013-07-12 16:15:00,88.0,57.0,-100.00,SE,145,8.0,16.0,35,0.00,,,-99.99,,2013-07-12 21:15:00,
2013-07-12 16:25:00,88.0,57.0,-100.00,SSW,195,7.0,16.0,35,0.00,,,-99.99,,2013-07-12 21:25:00,
2013-07-12 16:35:00,88.0,57.0,-100.00,SSW,195,7.0,16.0,35,0.00,,,-99.99,,2013-07-12 21:35:00,
2013-07-12 16:46:00,87.0,57.0,-100.00,ESE,115,7.0,17.0,35,0.00,,,-99.99,,2013-07-12 21:46:00,
2013-07-12 16:54:00,87.0,57.0,-100.00,ESE,115,7.0,17.0,35,0.00,,,-99.99,,2013-07-12 21:54:00,
2013-07-12 17:16:00,87.0,57.0,-100.00,SE,125,8.0,17.0,35,0.00,,,-99.99,,2013-07-12 22:16:00,
2013-07-12 17:33:00,87.0,57.0,-100.00,SE,130,9.0,17.0,36,0.00,,,-99.99,,2013-07-12 22:33:00,
2013-07-12 17:44:00,88.0,58.0,-100.00,SE,125,8.0,14.0,36,0.00,,,-99.99,,2013-07-12 22:44:00,
2013-07-12 17:54:00,87.0,57.0,-100.00,SE,145,8.0,15.0,35,0.00,,,-99.99,,2013-07-12 22:54:00,
2013-07-12 18:04:00,87.0,57.0,-100.00,SE,135,9.0,14.0,36,0.00,,,-99.99,,2013-07-12 23:04:00,
2013-07-12 18:13:00,87.0,57.0,-100.00,SE,135,9.0,14.0,36,0.00,,,-99.99,,2013-07-12 23:13:00,
2013-07-12 18:35:00,87.0,58.0,-100.00,SE,135,5.0,12.0,37,0.00,,,-99.99,,2013-07-12 23:35:00,
2013-07-12 18:43:00,87.0,58.0,-100.00,SE,140,7.0,12.0,38,0.00,,,-99.99,,2013-07-12 23:43:00,
2013-07-12 18:54:00,86.0,57.0,-100.00,SSE,150,6.0,12.0,37,0.00,,,-99.99,,2013-07-12 23:54:00,
2013-07-12 19:17:00,84.0,56.0,-100.00,SE,135,7.0,12.0,38,0.00,,,-99.99,,2013-07-13 00:17:00,
2013-07-12 19:25:00,84.0,56.0,-100.00,SE,135,7.0,12.0,38,0.00,,,-99.99,,2013-07-13 00:25:00,
2013-07-12 19:33:00,84.0,57.0,-100.00,SE,130,6.0,13.0,39,0.00,,,-99.99,,2013-07-13 00:33:00,
2013-07-12 20:13:00,81.0,57.0,-100.00,SE,145,5.0,9.0,42,0.00,,,-99.99,,2013-07-13 01:13:00,
2013-07-12 20:37:00,80.0,56.0,-100.00,ESE,120,6.0,10.0,43,0.00,,,-99.99,,2013-07-13 01:37:00,
2013-07-12 20:47:00,79.0,56.0,-100.00,SE,130,4.0,8.0,44,0.00,,,-99.99,,2013-07-13 01:47:00,
2013-07-12 20:56:00,77.0,56.0,-100.00,SE,140,3.0,7.0,49,0.00,,,-99.99,,2013-07-13 01:56:00,
2013-07-12 21:14:00,74.0,58.0,-100.00,ESE,115,4.0,6.0,57,0.00,,,-99.99,,2013-07-13 02:14:00,
2013-07-12 21:46:00,72.0,58.0,-100.00,ESE,120,4.0,7.0,60,0.00,,,-99.99,,2013-07-13 02:46:00,
2013-07-12 21:53:00,72.0,58.0,-100.00,ESE,120,5.0,7.0,61,0.00,,,-99.99,,2013-07-13 02:53:00,
2013-07-12 22:05:00,72.0,58.0,-100.00,ESE,120,5.0,7.0,61,0.00,,,-99.99,,2013-07-13 03:05:00,
2013-07-12 22:13:00,71.0,58.0,-100.00,SE,135,4.0,7.0,63,0.00,,,-99.99,,2013-07-13 03:13:00,
2013-07-12 22:27:00,70.0,58.0,-100.00,ESE,120,4.0,7.0,65,0.00,,,-99.99,,2013-07-13 03:27:00,
2013-07-12 22:45:00,69.0,59.0,-100.00,SE,140,5.0,8.0,69,0.00,,,-99.99,,2013-07-13 03:45:00,
2013-07-12 22:55:00,69.0,59.0,-100.00,SE,140,5.0,8.0,69,0.00,,,-99.99,,2013-07-13 03:55:00,
2013-07-12 23:01:00,69.0,59.0,-100.00,SE,135,4.0,10.0,70,0.00,,,-99.99,,2013-07-13 04:01:00,
2013-07-12 23:12:00,70.0,59.0,-100.00,SE,125,5.0,9.0,69,0.00,,,-99.99,,2013-07-13 04:12:00,
2013-07-12 23:32:00,70.0,59.0,-100.00,SE,130,5.0,13.0,68,0.00,,,-99.99,,2013-07-13 04:32:00,
2013-07-12 23:43:00,70.0,59.0,-100.00,SSE,155,6.0,12.0,67,0.00,,,-99.99,,2013-07-13 04:43:00,